Weather in Kamenka

Russia / Kemerovo Oblast     54°50′21″N   85°32′25″E
temp.,
°C
wind,
m/s
gust,
m/s
humid.,
%
clouds,
%
prec.,
mm/h
press.,
hPa
HPBL,
m
18 april, sun
sun1801:00−2sse257398 0.0 1022262
04:00−1ssw3776100 0.0 1020362
07:00−1sw41072100 0.0 1019510
10:00+2sw61063100 0.0 10171102
13:00+5wsw7949100 0.0 10151617
16:00+6sw6952100 0.0 10141513
19:00+4ssw5974100 0.0 1012656
22:00+3sse41085100 0.9 1007315
19 april, mon
mon1901:00+3ssw61593100 2.3 1003841
04:00+3wsw71497100 3.5 10001070
07:00−4w12197899 3.8 10041079
10:00−6nw111562100 0.1 10131346
13:00−4nw81055100 0.2 10191566
16:00−3wnw6846100 0.1 10202040
19:00−3nw674195 0.1 10221705
22:00−5nw6757100 0.0 10241238
20 april, tue
tue2001:00−6nw5651100 0.1 10241346
04:00−7nw4552100 0.0 10251138
07:00−7nw4561100 0.1 10261020
10:00−5nw4451100 0.1 10271296
13:00−3nw4444100 0.1 10261515
16:00−1nw4441100 0.1 10261754
19:00−1nw344056 0.1 10251563
22:00−3w235510 0.0 102569
21 april, wed
wed2101:00−4wsw365813 0.0 1025269
04:00−3sw3656100 0.0 1024379
07:00−3ssw4755100 0.0 1023640
10:00−2sw5744100 0.0 10231586
13:000sw4546100 0.0 10231625
16:00+1sw2346100 0.1 10231401
19:00+1ne115296 0.2 10241092
22:00−2ene357277 0.0 1026139
22 april, thu
thu2201:00−2ne247458 0.0 1027102
04:00−3n35825 0.0 1028156
07:00−3nne597523 0.0 1031489
10:00+1ne794440 0.0 10331267
13:00+3ne6741100 0.0 10342187
16:00+3ne6744100 0.1 10361886
19:00+1ne685681 0.4 10381254
22:00−1nne410685 0.0 1041332